TITAN 3C TRANSTAGE DEB, 1682

Orbit data source: Space-Track

TITAN 3C TRANSTAGE DEB, 1682 is space debris in LEO originally from a launch on Fri, 15 Oct 1965 UTC launched from the Air Force Eastern Test Range (AFETR). Debris objects in space refer to the collection of defunct objects orbiting the Earth. Examples of debris include non-operational satellites, rocket bodies, and fragments generated from explosions, collisions, or faulty payload assembly.

Loading next visibility...
Identifier
1682, 1965-082AV
Orbit
LEO
Country
Flag of USUS
Related business
Manufacturer
Unknown
Mission
Spacecraft
Bus & Motor
Unknown
Mass
Unknown
Launch date (UTC)
1965-10-15 (60 years ago)
Launch vehicle
Unknown
Launch site
Air Force Eastern Test Range (AFETR)
Object type
Payload
Rocket body
Debris
Shape & HBR
Unknown shape, 0.3 m
Radar Cross Section
Medium (>0.1 m² and <1 m²)

Expand to show TLE details & history
Last TLE update: 11 hours ago

TLE from 11 hours ago
0 TITAN 3C TRANSTAGE DEB
1 01682U 65082AV  25352.31691930  .00002185  00000-0  31737-3 0  9997
2 01682  32.4136   4.7366 0048206 293.2067  66.3515 14.73695980163775
Epoch: 2025-12-18T07:36Z
TLE epoch observation values (Epoch: 2025-12-18T07:36:21.827Z)
Latitude
0.00002°
Longitude
163.47151°
Altitude
634.517 km
Speed
7.551 km/s
True Right ascension
00h 18m 56s
True Declination
0° 00' 00"
Sunlit
Object was in daylight at epoch
Visualization orbit readout
Latitude
Unknown
Longitude
Unknown
Altitude
Unknown
Speed
Unknown
Apparent Right ascension
Unknown
Apparent Declination
Unknown
Sunlit
N/A
Visualization observer readout
Local Sidereal Time
17:16:28
Azimuth
Unknown
Elevation
Unknown
Doppler factor
Unknown
Orbital elements
Apogee altitude
686.759 km
Perigee altitude
618.972 km
Semi-major axis
7,031.003 km
Eccentricity
0.00482
Inclination
32.4136°
RAAN
4.7366°
Arg. of periapsis
293.2067°
True anomaly
66.85873°
Mean anomaly
66.3515°
Eccentric anomaly
66.60499°
Mean motion
3.68144 °/min
Orbital period
97.79 mins
BSTAR
0.00031737

Documentation

Showing up to 5 results
|